STARLINK-3047, 49174

Orbit data source: Space-Track

STARLINK-3047, 49174 is a payload satellite owned by SpaceX/Seattle (US) in LEO that was launched on Tue, 14 Sep 2021 UTC via an FALCON 9 launch vehicle from the Air Force Western Test Range (AFWTR). Payload-class satellites include a variety of spacecraft equipped with specific instruments for various scientific and technological missions. These include communications satellites like Starlink; space stations such as the ISS; scientific satellites like the Hubble; Earth observation satellites from companies like Planet Labs, Umbra, and HawkEye 360; GPS; miniature CubeSats for education and research; and military/defense satellites.

Not visible in the next 10 days
Identifier
49174, 2021-082AW
Orbit
LEO
Country
Flag of USUS
Related business
Manufacturer
SpaceX/Seattle
Mission
Partially operational Commercial Communications
Bus & Motor
STARLINK, Unknown motor
Mass
297 kg wet, ~275 kg dry
Launch date (UTC)
2021-09-14 (4 years ago)
Launch vehicle
FALCON 9
Launch site
Air Force Western Test Range (AFWTR)
Object type
Payload
Rocket body
Debris
Shape & HBR
Box + 1 Pan, 10.1 m
Radar Cross Section
13.562 m², Large (>1 m²)

Expand to show TLE details & history
Last TLE update: 12 hours ago

TLE from 12 hours ago
0 STARLINK-3047
1 49174U 21082AW  25286.66667824  .00639337  16575-3  20144-2 0  9997
2 49174  69.9707 214.7546 0005158 235.7642 231.5439 15.91148736  5942
Epoch: 2025-10-13T16:00Z
TLE epoch observation values (Epoch: 2025-10-13T16:00:00.999Z)
Latitude
63.90724°
Longitude
84.53812°
Altitude
311.593 km
Speed
7.726 km/s
True Right ascension
23h 08m 02s
True Declination
63° 45' 43"
Sunlit
Object was in full shadow at epoch
Visualization orbit readout
Latitude
Unknown
Longitude
Unknown
Altitude
Unknown
Speed
Unknown
Apparent Right ascension
Unknown
Apparent Declination
Unknown
Sunlit
N/A
Visualization observer readout
Local Sidereal Time
22:30:28
Azimuth
Unknown
Elevation
Unknown
Doppler factor
Unknown
Orbital elements
Apogee altitude
300.377 km
Perigee altitude
293.491 km
Semi-major axis
6,675.071 km
Eccentricity
0.00052
Inclination
69.9707°
RAAN
214.7546°
Arg. of periapsis
235.7642°
True anomaly
231.49763°
Mean anomaly
231.5439°
Eccentric anomaly
231.52076°
Mean motion
3.97978 °/min
Orbital period
90.46 mins
BSTAR
0.0020144
Loading maneuver chart data...
Computing Atmospheric mass density...
Loading historical data...
Loading historical data...
Loading historical data...
Loading historical data...
Loading historical data...
Loading historical data...
Loading historical data...

Documentation

Showing up to 5 results
|